Retour au catalogue

GEO IK

ActifScienceLEO
NORAD 23411·PAYLOAD·🇷🇺 Russia

Lancé Nov 29, 1994 depuis Plesetsk Cosmodrome

Loading…

Prochains Passages (prochaines 24 heures)

TLE

FraisSource: Space-Track

Époque: Sep 14, 2026, 15:30 UTC

1 23411U 94078A   26257.64647980 -.00000020  00000-0 -23041-4 0  9993
2 23411  73.6141  45.6721 0029256 224.9728 145.9338 12.40866569440163

Suivez GEO IK en temps réel avec AllMySat

Download on the App Store